Find Starlink 32661

NORAD ID: 62899 Int'l Des: 2025-024 Owner: SPXS Country: US Constellation: starlink operational
LEOCIRCULAR

リアルタイム位置

3D地球を読み込み中...

Starlink 32661について

説明を読み込み中...

次回通過

Passes for default location (London). Set your location on the main map for personalized predictions.

高度履歴

Loading altitude history...

軌道要素

1 62899U 25024W 26126.99505405 .00023471 00000-0 86036-3 0 9994
2 62899 43.0015 356.0291 0001471 280.3290 79.7396 15.27555646 71186
Epoch: May 6, 2026 • Age: 15 hours

現在のステータス

高度 494.7 km
速度 7.62 km/s
衛星直下点 -41.26°S, 149.57°E
打ち上げ日 Feb 4, 2025
運用期間 1.2 years
タイプ internet

技術仕様

分類 Payload
質量 730.00 kg
乾燥質量 700.00 kg
総質量 730.00 kg
長さ 0.30 m
直径 4.10 m
スパン 29.00 m
形状 Box + pan
製造者 SPXS
バスタイプ Starlink V2M
フェーズステータス In Orbit
所有者/国 SPXS/US

Most Searched